Left ArrowRight Arrow

39.92423, -83.80882

Hourly Observations for May 11, 2024

Temp ( °F °C ) Dew Point ( °F °C ) Humidity (%) Winds ( mph kmh ) Pressure ( in mb ) Visibility ( mi km ) Precip ( " mm )
12:56 am 00:56 Clear 50 10 42 5.6 74 74 S 5 7 29.87 1012 10 16 0.00 0.00
1:56 am 01:56 Mostly Cloudy 51 10.6 42 5.6 71 71 S 5 7 29.86 1011 10 16 0.00 0.00
2:56 am 02:56 Mostly Cloudy 53 11.7 42 5.6 66 66 S 7 11 29.83 1010 10 16 0.00 0.00
3:56 am 03:56 Cloudy 53 11.7 43 6.1 68 68 S 6 9 29.82 1010 10 16 0.00 0.00
4:56 am 04:56 Cloudy 53 11.7 43 6.1 68 68 SSW 8 13 29.80 1009 10 16 0.00 0.00
5:56 am 05:56 Cloudy 53 11.7 45 7.2 74 74 SSW 9 15 29.78 1009 10 16 0.00 0.00
6:56 am 06:56 Mostly Cloudy 54 12.2 46 7.8 74 74 SSW 12 19 29.76 1008 10 16 0.00 0.00
7:56 am 07:56 Cloudy with Rain 53 11.7 48 8.9 83 83 SW 12 19 29.77 1008 10 16 0.01 0.13
8:56 am 08:56 Cloudy with Light Rain 53 11.7 51 10.6 93 93 SSW 10 17 29.75 1008 9 14 0.00 0.00
9:52 am 09:52 Cloudy 54 12 52 11 94 94 WSW 14 22 29.75 1008 10 16 0.00 0.00
9:56 am 09:56 Cloudy 54 12.2 52 11.1 93 93 WSW 15 24 29.76 1008 10 16 0.00 0.00
10:56 am 10:56 Mostly Cloudy with Light Rain 60 15.6 54 12.2 80 80 WNW 13 20 29.75 1008 10 16 0.00 0.00
11:21 am 11:21 Mostly Cloudy 61 16 48 9 63 63 WNW 18 30 29.74 1007 10 16 0.00 0.00
11:56 am 11:56 Mostly Cloudy 62 16.7 46 7.8 56 56 WNW 20 31 29.76 1008 10 16 0.00 0.00
12:56 pm 12:56 Partly Cloudy 63 17.2 44 6.7 50 50 WNW 18 30 29.77 1008 10 16 0.00 0.00
1:56 pm 13:56 Mostly Cloudy 65 18.3 44 6.7 47 47 W 22 35 29.77 1008 10 16 0.00 0.00
2:56 pm 14:56 Mostly Cloudy 65 18.3 44 6.7 47 47 W 22 35 29.77 1008 10 16 0.00 0.00
3:56 pm 15:56 Mostly Cloudy 65 18.3 43 6.1 45 45 WNW 22 35 29.77 1008 10 16 0.00 0.00
4:56 pm 16:56 Partly Cloudy 65 18.3 42 5.6 43 43 WNW 24 39 29.77 1008 10 16 0.00 0.00
5:56 pm 17:56 Mostly Cloudy 66 18.9 42 5.6 42 42 WNW 22 35 29.79 1009 10 16 0.00 0.00
6:56 pm 18:56 Mostly Sunny 64 17.8 42 5.6 45 45 NW 18 30 29.80 1009 10 16 0.00 0.00
7:56 pm 19:56 Sunny 61 16.1 42 5.6 50 50 NW 13 20 29.82 1010 10 16 0.00 0.00
8:56 pm 20:56 Clear 58 14.4 42 5.6 55 55 NNW 8 13 29.84 1011 10 16 0.00 0.00
9:56 pm 21:56 Clear 54 12.2 43 6.1 66 66 NW 6 9 29.86 1011 10 16 0.00 0.00
10:56 pm 22:56 Mostly Clear 54 12.2 43 6.1 66 66 NW 7 11 29.88 1012 10 16 0.00 0.00
11:56 pm 23:56 Mostly Cloudy 51 10.6 44 6.7 77 77 WNW 6 9 29.88 1012 10 16 0.00 0.00

Powered by Vaisala Xweather